Weather History for KSPG - August, 2013

Change the Weather History Date:

Wednesday, August 7, 2013

  Actual Average (KTPA) Record (KTPA)
Temperature  
Mean Temperature 83 °F 83 °F  
Max Temperature 93 °F 90 °F 97 °F (1993)
Min Temperature 75 °F 76 °F 70 °F (1936)
Degree Days  
Heating Degree Days 0 0  
Month to date heating degree days 0  
Since 1 June heating degree days 0  
Since 1 July heating degree days 0  
Cooling Degree Days 18 18  
Month to date cooling degree days 126  
Year to date cooling degree days 2077  
Since 1 June cooling degree days 1200  
Growing Degree Days 33 (Base 50)    
Moisture  
Dew Point 76 °F    
Average Humidity 81    
Maximum Humidity 94    
Minimum Humidity 52    
Precipitation  
Precipitation 1.86 in 0.25 in 4.15 in (2004)
Month to date precipitation 1.69  
Year to date precipitation 27.64  
Sea Level Pressure  
Sea Level Pressure 29.93 in    
Wind  
Wind Speed 9 mph (ESE)    
Max Wind Speed 32 mph    
Max Gust Speed 38 mph    
Visibility 8 miles    
Events Fog , Rain , Thunderstorm    
T = Trace of Precipitation, MM = Missing Value Source: NWS Daily Summary

Daily Weather History Graph

Daily Weather History Graph

Search for Another Location

Airport or City:

Trip Planner

Search our weather history database for the weather conditions in past years. The results will help you decide how hot, cold, wet, or windy it might be!

Date:

Astronomy

Aug. 07, 2013 Rise Set
Actual Time 6:56 AM EDT 8:15 PM EDT
Civil Twilight 6:31 AM EDT 8:40 PM EDT
Nautical Twilight 6:02 AM EDT 9:09 PM EDT
Astronomical Twilight 5:31 AM EDT 9:40 PM EDT
Moon 7:34 AM EDT (8/7) 8:34 PM EDT (8/7)
Length of Visible Light 14h 08m
Length of Day
13h 18m
New Moon, 1% of the Moon is Illuminated
Aug 7
New Moon
Aug 14
First Quarter
Aug 20
Full
Aug 28
Last Quarter
Sep 5
New

Hourly Weather History & Observations

Time (EDT) Temp. Heat Index Dew Point Humidity Pressure Visibility Wind Dir Wind Speed Gust Speed Precip Events Conditions
12:53 AM 84.9 °F 94.1 °F 75.9 °F 74% 29.94 in 10.0 mi East 8.1 mph - N/A   Clear
1:53 AM 82.9 °F 91.8 °F 77.0 °F 82% 29.93 in 10.0 mi East 9.2 mph - N/A   Clear
2:53 AM 84.0 °F 93.7 °F 77.0 °F 79% 29.91 in 10.0 mi East 11.5 mph - N/A   Clear
3:53 AM 82.9 °F 91.8 °F 77.0 °F 82% 29.90 in 10.0 mi East 11.5 mph - N/A   Clear
4:53 AM 82.0 °F 89.4 °F 75.9 °F 82% 29.91 in 10.0 mi ESE 9.2 mph - N/A   Clear
5:53 AM 82.0 °F 90.2 °F 77.0 °F 85% 29.91 in 10.0 mi ESE 10.4 mph - N/A   Clear
6:53 AM 82.0 °F 91.0 °F 78.1 °F 88% 29.92 in 10.0 mi SE 9.2 mph - N/A   Clear
7:53 AM 82.0 °F 91.0 °F 78.1 °F 88% 29.94 in 10.0 mi ESE 9.2 mph - N/A   Clear
8:53 AM 82.9 °F 91.8 °F 77.0 °F 82% 29.95 in 10.0 mi SE 6.9 mph - N/A   Unknown
9:53 AM 84.9 °F 96.6 °F 78.1 °F 80% 29.96 in 10.0 mi ESE 6.9 mph - N/A   Clear
10:53 AM 87.1 °F 98.8 °F 77.0 °F 72% 29.96 in 10.0 mi SE 8.1 mph - N/A   Clear
11:53 AM 89.1 °F 103.2 °F 78.1 °F 70% 29.96 in 10.0 mi ESE 4.6 mph - N/A   Clear
12:53 PM 90.0 °F 102.5 °F 77.0 °F 65% 29.95 in 10.0 mi ENE 5.8 mph - N/A   Clear
1:53 PM 91.0 °F 104.2 °F 77.0 °F 63% 29.94 in 10.0 mi East 5.8 mph - N/A   Clear
2:53 PM 91.9 °F 105.9 °F 77.0 °F 62% 29.93 in 10.0 mi Calm Calm - N/A   Clear
3:53 PM 91.9 °F 99.5 °F 72.0 °F 52% 29.91 in 10.0 mi East 4.6 mph - N/A   Clear
4:53 PM 86.0 °F 93.0 °F 73.0 °F 65% 29.90 in 10.0 mi WNW 10.4 mph - N/A   Clear
5:53 PM 88.0 °F 97.5 °F 75.0 °F 65% 29.89 in 10.0 mi NW 9.2 mph - N/A   Clear
6:53 PM 87.1 °F 99.8 °F 78.1 °F 74% 29.89 in 10.0 mi NW 11.5 mph - N/A   Mostly Cloudy
7:16 PM 80.1 °F 85.8 °F 77.0 °F 90% 29.92 in 1.8 mi SE 32.2 mph 38.0 mph 0.07 in Rain Rain
7:22 PM 79.0 °F - 75.9 °F 90% 29.95 in 0.8 mi SSE 25.3 mph 38.0 mph 0.40 in Rain Heavy Rain
7:27 PM 78.1 °F - 75.0 °F 90% 29.98 in 0.5 mi SSE 26.5 mph 35.7 mph 0.86 in Fog , Rain Heavy Rain
7:47 PM 75.2 °F - 73.4 °F 94% 29.94 in 1.0 mi WSW 5.8 mph - 1.76 in Rain Heavy Rain
7:48 PM 75.9 °F - 73.0 °F 91% 29.94 in 1.0 mi WSW 6.9 mph - 1.77 in Rain Heavy Rain
7:59 PM 75.9 °F - 73.0 °F 91% 29.93 in 3.0 mi Calm Calm - 0.03 in Rain Light Rain
8:53 PM 78.1 °F - 75.0 °F 90% 29.93 in 6.0 mi Calm Calm - 0.07 in Rain Light Rain
9:04 PM 78.1 °F - 75.0 °F 90% 29.92 in 6.0 mi NNW 4.6 mph - 0.02 in Rain , Thunderstorm Light Thunderstorms and Rain
9:15 PM 77.0 °F - 75.0 °F 94% 29.93 in 7.0 mi North 3.5 mph - 0.02 in Rain Light Rain
9:53 PM 78.1 °F - 75.0 °F 90% 29.92 in 10.0 mi Calm Calm - 0.02 in   Clear
10:53 PM 82.0 °F 91.0 °F 78.1 °F 88% 29.95 in 10.0 mi East 11.5 mph - N/A   Partly Cloudy
11:02 PM 82.0 °F 91.0 °F 78.1 °F 88% 29.95 in 10.0 mi East 10.4 mph - N/A   Partly Cloudy
11:53 PM 82.0 °F 90.2 °F 77.0 °F 85% 29.96 in 10.0 mi ESE 8.1 mph - N/A   Clear